Location: �terpigny
(49.8910°N, 2.9249°E)
Time: 10:56:51
(UTC+00:00)

CUBESAT XI-V - Pass Details

Date: 05 July 2022
Orbit: 668 x 690 km, 98.1° (Epoch: 17 August)

Event Time Altitude Azimuth Distance (km) Brightness Sun altitude
Exits shadow 02:04:41 16° 201° (SSW) 1,722 ? -11.7°
Maximum altitude 02:07:53 38° 263° (W) 1,035 ? -11.4°
Drops below altitude 10° 02:12:10 10° 331° (NNW) 2,108 ? -11.0°
Sets 02:14:33 0° 340° (NNW) 3,025 ? -10.8°
